CDT,Max TemperatureF,Mean TemperatureF,Min TemperatureF,Max Dew PointF,MeanDew PointF,Min DewpointF,Max Humidity, Mean Humidity, Min Humidity, Max Sea Level PressureIn, Mean Sea Level PressureIn, Min Sea Level PressureIn, Max VisibilityMiles, Mean VisibilityMiles, Min VisibilityMiles, Max Wind SpeedMPH, Mean Wind SpeedMPH, Max Gust SpeedMPH,PrecipitationIn, CloudCover, Events, WindDirDegrees
2013-7-1,81,68,57,60,51,44,95,59,31,30.26,30.23,30.20,10,10,5,16,6,22,0.00,0,,56
2013-7-2,82,68,55,50,43,40,79,41,25,30.28,30.22,30.14,10,10,7,13,4,22,0.00,0,Rain,147
2013-7-3,81,67,54,54,46,38,81,51,30,30.20,30.11,30.00,10,10,4,26,10,37,0.08,2,Rain,137
2013-7-4,87,72,57,52,50,47,79,49,27,30.06,30.01,29.94,10,10,10,24,13,30,0.05,0,Rain,190
2013-7-5,95,78,63,52,50,47,61,37,21,30.00,29.94,29.84,10,10,10,28,16,37,0.00,0,,185
2013-7-6,96,84,72,52,49,45,48,31,20,29.98,29.93,29.89,10,10,10,30,19,40,0.00,0,,184
2013-7-7,95,82,70,53,50,45,52,33,21,30.09,30.03,29.98,10,10,10,22,13,28,0.00,0,,188
2013-7-8,96,82,68,54,52,50,57,35,22,30.16,30.11,30.06,10,10,10,23,11,29,0.00,0,,193
2013-7-9,98,86,73,58,55,52,56,37,23,30.16,30.11,30.05,10,10,10,25,13,30,0.00,0,,204
2013-7-10,95,84,74,61,58,53,60,43,24,30.19,30.13,30.03,10,10,10,24,10,30,0.00,0,,201
2013-7-11,94,78,65,65,59,53,82,53,29,30.19,30.10,30.00,10,10,10,22,11,28,0.00,0,Rain,194
2013-7-12,99,83,68,60,55,52,71,40,21,30.06,30.02,29.96,10,10,10,21,13,31,0.00,0,,173
2013-7-13,99,84,69,54,50,44,54,31,15,30.11,30.05,29.98,10,10,10,21,12,31,0.00,0,,194
2013-7-14,84,71,58,62,53,44,96,49,28,30.17,30.05,30.01,10,10,4,22,12,30,0.14,1,Rain,186
2013-7-15,73,65,57,59,56,50,98,78,45,30.23,30.18,30.14,10,9,2,15,8,22,0.00,5,Rain,61
2013-7-16,70,63,57,63,60,57,100,91,74,30.34,30.23,30.19,10,7,2,17,6,22,0.18,6,Rain,81
2013-7-17,79,70,62,66,64,62,99,87,56,30.38,30.33,30.29,10,9,2,17,10,24,0.32,6,Rain,146
2013-7-18,84,73,62,65,63,60,99,76,44,30.31,30.22,30.11,10,9,4,22,11,26,0.00,4,,181
2013-7-19,89,76,64,64,62,59,93,63,37,30.15,30.08,29.98,10,10,10,23,15,29,0.00,1,,202
2013-7-20,89,77,66,64,62,58,86,61,36,30.09,30.02,29.94,10,10,4,26,10,36,0.00,1,,210
2013-7-21,94,81,69,61,58,53,75,49,28,30.00,29.96,29.91,10,10,10,23,13,29,0.00,0,,208
2013-7-22,96,82,68,62,57,51,70,45,23,30.02,29.97,29.92,10,10,10,21,13,25,0.00,0,,199
2013-7-23,99,85,71,64,59,52,74,47,22,30.03,29.99,29.93,10,10,7,23,12,31,0.00,0,,198
2013-7-24,92,78,64,66,62,57,94,62,33,30.20,30.10,30.00,10,10,7,29,12,34,0.00,1,,71
2013-7-25,84,74,65,68,62,56,83,67,50,30.23,30.14,30.05,10,10,10,23,14,29,0.00,2,Rain,184
2013-7-26,84,74,63,68,58,46,92,61,28,30.26,30.19,30.13,10,10,10,21,12,29,0.00,0,,15
2013-7-27,92,74,58,60,52,44,91,49,20,30.26,30.11,29.96,10,10,10,26,13,33,0.00,0,,187
2013-7-28,92,80,67,56,52,48,55,40,24,30.03,29.97,29.90,10,10,10,25,17,33,0.00,1,,182
2013-7-29,94,80,65,67,62,55,92,59,27,30.02,29.97,29.91,10,10,4,15,10,18,0.49,1,Rain,196
2013-7-30,84,74,65,68,65,61,99,75,49,30.22,30.16,30.03,10,8,2,29,11,34,0.11,3,Rain,57
2013-7-31,87,76,64,70,66,59,99,75,48,30.31,30.22,30.15,10,8,0,26,7,32,0.99,1,Fog-Rain,119